This is the latest recevied weather packets stored in our database for station/object DK4MDA-13. If no packets are shown the sender has not sent any weather packets the latest 10 day(s).
| Time | Temp. | Humidity | Pressure | Rain* | Wind** | Luminosity | Snow |
|---|---|---|---|---|---|---|---|
| 1777912931 | 22.78° C | 50% | 1011.3 hPa | 0 mm | - | - | - |
| 1777912631 | 23.33° C | 52% | 1011.4 hPa | 0 mm | - | - | - |
| 1777912331 | 23.33° C | 48% | 1011.4 hPa | 0 mm | - | - | - |
| 1777912031 | 22.78° C | 49% | 1011.3 hPa | 0 mm | - | - | - |
| 1777911731 | 22.78° C | 48% | 1011.3 hPa | 0 mm | - | - | - |
| 1777911431 | 22.78° C | 49% | 1011.3 hPa | 0 mm | - | - | - |
| 1777911131 | 23.33° C | 48% | 1011.4 hPa | 0 mm | - | - | - |
| 1777910831 | 23.33° C | 49% | 1011.5 hPa | 0 mm | - | - | - |
| 1777910531 | 23.33° C | 50% | 1011.4 hPa | 0 mm | - | - | - |
| 1777910231 | 23.33° C | 49% | 1011.5 hPa | 0 mm | - | - | - |
| 1777909931 | 23.33° C | 47% | 1011.5 hPa | 0 mm | - | - | - |
| 1777909631 | 23.33° C | 50% | 1011.6 hPa | 0 mm | - | - | - |
| 1777909331 | 23.89° C | 48% | 1011.6 hPa | 0 mm | - | - | - |
| 1777909031 | 23.89° C | 47% | 1011.6 hPa | 0 mm | - | - | - |
| 1777908731 | 24.44° C | 48% | 1011.6 hPa | 0 mm | - | - | - |
| 1777908431 | 24.44° C | 47% | 1011.7 hPa | 0 mm | - | - | - |
| 1777908131 | 23.89° C | 48% | 1011.6 hPa | 0 mm | - | - | - |
| 1777907831 | 23.89° C | 46% | 1011.6 hPa | 0 mm | - | - | - |
| 1777907531 | 24.44° C | 48% | 1011.6 hPa | 0 mm | - | - | - |
| 1777907231 | 24.44° C | 48% | 1011.7 hPa | 0 mm | - | - | - |
| 1777906631 | 23.89° C | 46% | 1011.8 hPa | 0 mm | - | - | - |
| 1777906331 | 23.89° C | 46% | 1011.8 hPa | 0 mm | - | - | - |
| 1777906031 | 23.89° C | 46% | 1011.8 hPa | 0 mm | - | - | - |
| 1777905731 | 23.89° C | 47% | 1011.7 hPa | 0 mm | - | - | - |
| 1777905431 | 23.33° C | 48% | 1011.9 hPa | 0 mm | - | - | - |
* Rain latest hour (hover to see other rain measurements)
** Current wind speed in m/s (hover to see current wind gust speed)